Regional Weather Roundup
Issued by NWS Columbia, SC

Home | Current Version | Previous Version | Text Only | Print | Product List | Glossary On
Versions: 1 2 3 4 5 6 7 8 9 10 11 12 13 14 15 16 17 18 19 20 21 22 23 24 25 26 27 28 29 30 31 32 33 34 35 36 37 38 39 40 41 42 43 44 45 46 47 48 49 50
615
ASUS42 KCAE 261010
RWRCAE
REGIONAL WEATHER ROUNDUP
NATIONAL WEATHER SERVICE COLUMBIA SC
600 AM EDT SAT MAY 26 2018

NOTE: "FAIR" INDICATES FEW OR NO CLOUDS BELOW 12,000 FEET WITH NO
SIGNIFICANT WEATHER AND/OR OBSTRUCTIONS TO VISIBILITY.

NOT ALL STATIONS ARE QUALITY CONTROLLED BY THE NATIONAL
WEATHER SERVICE. USE DATA WITH CAUTION...ESPECIALLY
DEWPOINT OBSERVATIONS.

SCZ001>056-GAZ040-063>065-077-261100-
...UPSTATE SOUTH CAROLINA...

CITY           SKY/WX    TMP DP  RH WIND       PRES   REMARKS
ANDERSON       CLOUDY    70  69  97 CALM      29.95S
LIBERTY        LGT RAIN  69  69 100 CALM      29.95S
SPARTANBURG    HVY RAIN  68  66  94 SW6       29.97R
CLEMSON        FAIR      69  68  96 CALM      29.96S FOG
GREENVILLE     RAIN      71  70  96 S3        29.98R FOG
GREENWOOD      CLOUDY    71  71 100 S7        29.97R FOG
GREER          HVY RAIN  69  69 100 SW5       29.97S FOG
ROCK HILL      CLOUDY    69  69 100 S8        29.97R FOG
CHESTER        CLOUDY    70  70 100 S5        29.98R
LAURENS        CLOUDY    70  70 100 S3        29.96S


...CENTRAL SOUTH CAROLINA...

CITY           SKY/WX    TMP DP  RH WIND       PRES   REMARKS
COLUMBIA APT   CLOUDY    73  72  96 S3        29.95F
COLUMBIA OWENS CLOUDY    71  70  96 CALM      29.97S
MCENTIRE ANGB  CLOUDY    70  70 100 SE3       29.97S FOG
ORANGEBURG     CLOUDY    71  69  93 SE3       29.97S
SUMTER SHAW    CLOUDY    70  70 100 S3        29.95S FOG
NEWBERRY       CLOUDY    70  70 100 S5        29.99R
AIKEN          CLOUDY    70  70 100 S7        29.99S
BARNWELL       CLOUDY    72  72 100 S6        29.96S
MANNING        CLOUDY    64  64 100 CALM      29.98S
CAMDEN         CLOUDY    70  70 100 MISG      29.98S
LANCASTER      CLOUDY    70  70 100 S7        29.98R
WINNSBORO      CLOUDY    70  70 100 S6        29.97S FOG


...EASTERN AND COASTAL SOUTH CAROLINA...

CITY           SKY/WX    TMP DP  RH WIND       PRES   REMARKS
N MYRTLE BCH   FAIR      74  73  97 SW6       29.99S
CONWAY         FAIR      64  64 100 CALM      29.99S FOG
MARION         PTSUNNY   70  68  94 CALM      29.99S FOG
HARTSVILLE     CLOUDY    68  68 100 S3        29.98S FOG
FLORENCE       FOG       71  70  96 S5        29.98S VSB 3/4
DARLINGTON       N/A     71  70  96 S5        29.99R
CHARLESTON APT FAIR      73  72  96 SE5       29.98S
MOUNT PLEASANT PTSUNNY   73  73 100 CALM      29.99S FOG
WALTERBORO     CLOUDY    68  68 100 CALM      29.98S FOG
BEAUFORT       FAIR      77  75  93 S3        29.97


...EASTERN GEORGIA...

CITY           SKY/WX    TMP DP  RH WIND       PRES   REMARKS
AUGUSTA BUSH F CLOUDY    72  71  97 S6        29.94F
AUGUSTA DANIEL CLOUDY    73  72  96 SE7       29.95F
THOMSON        CLOUDY    71  70  98 W6        29.99S FOG
WASHINGTON     CLOUDY    70  70 100 S3        29.95R FOG
CLAXTON        CLOUDY    73  72  98 CALM      29.97S FOG
SYLVANIA       CLOUDY    73  73  99 SW3       29.98S FOG
STATESBORO     CLOUDY    72  71  97 S5        29.96S
SAVANNAH       FAIR      73  72  96 CALM      29.97S


...SOUTHERN NORTH CAROLINA...

CITY           SKY/WX    TMP DP  RH WIND       PRES   REMARKS
CHARLOTTE      CLOUDY    72  71  98 S5        29.97S
MONROE         CLOUDY    70  70 100 S5        29.97R
WADESBORO      CLOUDY    71  68  92 S3        29.97S
ROCKINGHAM     CLOUDY    69  69 100 S7        29.98S FOG
RUTHERFORDTON  CLOUDY    69  69 100 S8        29.97S
ASHEVILLE      CLOUDY    67  66  97 CALM      30.00S

$$




USA.gov is the U.S. government's official web portal to all federal, state and local government web resources and services.